This is the latest recevied weather packets stored in our database for station/object IW0REF-9. If no packets are shown the sender has not sent any weather packets the latest 10 day(s).
| Time | Temp. | Humidity | Pressure | Rain* | Wind** | Luminosity | Snow |
|---|---|---|---|---|---|---|---|
| 1778182724 | 19.44° C | 25% | 996.5 hPa | - | - | - | - |
| 1778181824 | 20° C | 24% | 996.5 hPa | - | - | - | - |
| 1778180924 | 20° C | 23% | 996.5 hPa | - | - | - | - |
| 1778180024 | 20.56° C | 22% | 996.3 hPa | - | - | - | - |
| 1778179124 | 20.56° C | 22% | 996.3 hPa | - | - | - | - |
| 1778178224 | 22.22° C | 20% | 996.2 hPa | - | - | - | - |
| 1778177324 | 25.56° C | 19% | 996.2 hPa | - | - | - | - |
| 1778176424 | 27.22° C | 19% | 996.2 hPa | - | - | - | - |
| 1778175524 | 27.22° C | 18% | 996.2 hPa | - | - | - | - |
| 1778174624 | 28.89° C | 18% | 996.2 hPa | - | - | - | - |
| 1778173724 | 31.11° C | 17% | 995.9 hPa | - | - | - | - |
| 1778172823 | 33.33° C | 17% | 996.1 hPa | - | - | - | - |
| 1778171923 | 33.33° C | 17% | 996 hPa | - | - | - | - |
| 1778171023 | 32.78° C | 17% | 996 hPa | - | - | - | - |
| 1778170123 | 33.33° C | 17% | 996.1 hPa | - | - | - | - |
| 1778169223 | 32.22° C | 18% | 996.1 hPa | - | - | - | - |
| 1778168323 | 33.33° C | 18% | 996.3 hPa | - | - | - | - |
| 1778167423 | 33.33° C | 18% | 996.4 hPa | - | - | - | - |
| 1778166523 | 33.33° C | 18% | 996.4 hPa | - | - | - | - |
| 1778165623 | 33.33° C | 20% | 996.5 hPa | - | - | - | - |
| 1778164723 | 32.78° C | 20% | 996.6 hPa | - | - | - | - |
| 1778163822 | 32.22° C | 20% | 996.8 hPa | - | - | - | - |
| 1778162921 | 32.22° C | 20% | 997 hPa | - | - | - | - |
| 1778162021 | 32.22° C | 21% | 997.1 hPa | - | - | - | - |
| 1778161121 | 31.67° C | 23% | 997.4 hPa | - | - | - | - |
* Rain since midnight (hover to see other rain measurements)
** Current wind speed in m/s (hover to see current wind gust speed)